User: anonymous   Login
Location: Holiday Acres Laynes 2 Mobile Home Park
(26.7249°N, 81.8671°W)
Time: 11:10:05
(UTC+00:00)
Language:

SMAP - Orbit

View from above orbital plane
View from above orbital plane
View from above satellite
View from above satellite

Ground track
Ground track

The orbit data is extracted from the following two-line orbital elements,

1 40376U 15003A   21063.89965059  .00000064  00000-0  21455-4 0  9993
2 40376  98.1258  72.5924 0000751  88.2401 271.8887 14.63395949325318
Epoch (UTC): 04 March 2021 21:35:29
Eccentricity: 0.0000751
inclination: 98.1258°
perigee height: 682 km
apogee height: 683 km
right ascension of ascending node: 72.5924°
argument of perigee: 88.2401°
revolutions per day: 14.63395949
mean anomaly at epoch: 271.8887°
orbit number at epoch: 32531

The dashed part of the orbit path shows where the satellite is in the earth's shadow,  

DLR